Regional Weather Roundup
Issued by NWS Sterling, VA

Home | Current Version | Previous Version | Text Only | Print | Product List | Glossary Off
Versions: 1 2 3 4 5 6 7 8 9 10 11 12 13 14 15 16 17 18 19 20 21 22 23 24 25 26 27 28 29 30 31 32 33 34 35 36 37 38 39 40 41 42 43 44 45 46 47 48 49 50

123
ASUS41 KLWX 171811
RWRLWX

REGIONAL WEATHER ROUNDUP
NATIONAL WEATHER SERVICE BALTIMORE MD/WASHINGTON DC
100 PM EST SUN DEC 17 2017

Note: "FAIR" indicates few or no clouds below 12,000 feet
with no significant weather and/or obstructions to visibility.
 TC=TEMPERATURE CELSIUS

 * =Non NWS site. Station does not report precipitation (e.g. rain,
    snow, etc.), thunder, or fog.

DCZ001-MDZ009-015-VAZ040>042-051-053>054-171900-
WASHINGTON METRO

CITY           SKY/WX    TMP DP  RH WIND       PRES   REMARKS
WASHINGTON NAT CLOUDY    49  31  49 S7        30.23F
DULLES         CLOUDY    48  30  49 CALM      30.21F
ANDREWS AFB    CLOUDY    51  28  40 S6        30.21F
FT BELVOIR     CLOUDY    45  27  49 CALM      30.22F
QUANTICO       CLOUDY    43  33  68 CALM      30.23F
COLLEGE PARK*  PTSUNNY   49  31  49 S3        30.22F
LEESBURG*      CLOUDY    50  32  50 S3        30.21F
MANASSAS*      CLOUDY    45  29  53 CALM      30.21F
GAITHERSBURG*  PTSUNNY   51  29  42 W5        30.21F

$$

MDZ006>007-011-014-171900-
BALTIMORE METRO

CITY           SKY/WX    TMP DP  RH WIND       PRES   REMARKS
BWI AIRPORT    CLOUDY    48  31  51 E6        30.21F
MD SCIENCE CTR   N/A     46  32  58 MISG      30.22F
MARTIN STATE   PTSUNNY   43  37  81 SE6       30.25F
ANNAPOLIS      PTSUNNY   43  36  76 SE8       30.22F
FORT MEADE*    PTSUNNY   48  32  53 E3        30.23F

$$

MDZ012-015-019>023-171900-
MARYLAND EASTERN SHORE

CITY           SKY/WX    TMP DP  RH WIND       PRES   REMARKS
OCEAN CITY     MOSUNNY   50  35  56 SW7       30.24F
SALISBURY      MOSUNNY   50  32  50 CALM      30.23F
BAY BRIDGE AP* PTSUNNY   45  32  61 CALM      30.23F
CAMBRIDGE*     SUNNY     48  34  57 CALM      30.24F
EASTON*        MOSUNNY   50  32  50 W7        30.26F

$$

MDZ017>025-171900-
SOUTHERN MARYLAND

CITY           SKY/WX    TMP DP  RH WIND       PRES   REMARKS
PATUXENT RIVER CLOUDY    47  36  65 E7        30.23F
ST INIGOES     MOSUNNY   49  31  49 CALM      30.23F
LEONARDTOWN*   CLOUDY    48  30  49 SE3       30.24F

$$

MDZ003>005-171900-
NORTH CENTRAL MARYLAND

CITY           SKY/WX    TMP DP  RH WIND       PRES   REMARKS
FREDERICK*     SUNNY     48  27  43 CALM      30.23F
HAGERSTOWN APT MOSUNNY   47  30  51 N3        30.18F
WESTMINSTER*   MOSUNNY   46  30  53 W6        30.19F

$$

MDZ501>502-171900-
WESTERN MARYLAND

CITY           SKY/WX    TMP DP  RH WIND       PRES   REMARKS
OAKLAND*       CLOUDY    36  27  69 SW6       30.09F
CUMBERLAND*    CLOUDY    36  32  87 CALM      30.23F

$$

VAZ025>031-171900-
SHENANDOAH VALLEY

CITY           SKY/WX    TMP DP  RH WIND       PRES   REMARKS
WINCHESTER*    MOSUNNY   45  28  53 SW3       30.18F
FRONT ROYAL*   PTSUNNY   46  28  49 MISG      30.17F
LURAY*         CLOUDY    43  32  65 S3        30.17F
NEW MARKET*    CLOUDY    41  28  59 CALM      30.17F
STAUNTON*      CLOUDY    44  29  56 CALM      30.20F
WAYNESBORO*    CLOUDY    45  28  52 CALM      30.19F

$$

WVZ021-048>050-054>055-171900-
EASTERN WEST VIRGINIA PANHANDLE

CITY           SKY/WX    TMP DP  RH WIND       PRES   REMARKS
MARTINSBURG    MOSUNNY   45  30  55 S6        30.18F
PETERSBURG*    CLOUDY    39  28  66 CALM      30.19S

$$

VAZ036>039-050-171900-
CENTRAL FOOTHILLS

CITY           SKY/WX    TMP DP  RH WIND       PRES   REMARKS
CHARLOTTESVILL MOSUNNY   51  26  37 S3        30.19F
CULPEPER*      FAIR      47  27  45 CALM      30.21F
ORANGE*        PTSUNNY   50  32  50 CALM      30.20F
GORDONSVILLE*  MOSUNNY   50  31  49 CALM      30.18F
WARRENTON*     MOSUNNY   49  25  38 CALM      30.20F

$$

VAZ055>057-171900-
NORTH AND CENTRAL PIEDMONT

CITY           SKY/WX    TMP DP  RH WIND       PRES   REMARKS
FREDERICKSBRG* MOSUNNY   47  31  53 CALM      30.21F
STAFFORD*      CLOUDY    49  29  46 E3        30.25F

$$

NCZ024-NYZ072-PAZ021-071-VAZ022-071-171900-
OTHER REGIONAL OBSERVATIONS

CITY           SKY/WX    TMP DP  RH WIND       PRES   REMARKS
NEW YORK CITY  CLOUDY    37  23  56 CALM      30.28F
PHILADELPHIA   CLOUDY    42  28  57 CALM      30.24F
PITTSBURGH     CLOUDY    42  29  59 SW7       30.14F
ROANOKE        CLOUDY    46  28  49 W3        30.21F
RICHMOND       PTSUNNY   54  28  36 VRB6      30.22F
RALEIGH        CLOUDY    51  29  42 SW6       30.21F

$$

ANZ530>537-171900-
MARINE OBSERVATIONS

STATION/POSITION TIME  TEMP    WIND        PRES
                       AIR SEA DIR/SP/G
                 (UTC) (F)     (DEG/KT/KT) (MB)
THOMAS PT LIGHT  1800   42 43  150/  5/  5   N/A
BALT KEY BRIDGE  1748   39     120/  7/  7 1023.3F
COVE POINT       1748   43     160/  3/  4 1024.4F
LEWISETTA        1748   43 42   50/  3/  4 1023.7F
SOLOMONS ISLAND  1742   47 45   CALM  /  1 1023.6F
PINEY POINT      1736           10/  2/  2   N/A

$$





USA.gov is the U.S. government's official web portal to all federal, state and local government web resources and services.